When you browse on this site, cookies collect data to enhance your experience and personalize the content and advertising you see.
Visit our Privacy Policy to learn more. By continuing to use the site, you agree to this use of cookies and data.
  • In Lithuania
  • List of Countries
  • For 7 days
  • Water Temperature
  • Satellite Maps
  • Weather Map
  • Weather Widgets
  • user-avatar
    Login

    Hourly Weather Myzovka

    Today, 27 May, Monday

    Time Temperature Precipitation Wind Pressure Humidity
    00:00 +11°C° 0 mm 4 mps 736 mmHg 90%
    01:00 +11°C° 0 mm 4 mps 737 mmHg 92%
    02:00 +10°C° 0 mm 3 mps 737 mmHg 93%
    03:00 +10°C° 0 mm 3 mps 737 mmHg 92%
    04:00 +10°C° 0 mm 3 mps 738 mmHg 91%
    05:00 +10°C° 0 mm 3 mps 738 mmHg 90%
    06:00 +12°C° 0 mm 4 mps 739 mmHg 84%
    07:00 +13°C° 0 mm 4 mps 739 mmHg 78%
    08:00 +15°C° 0 mm 4 mps 739 mmHg 72%
    09:00 +17°C° 0 mm 4 mps 740 mmHg 69%
    10:00 +18°C° 0 mm 4 mps 740 mmHg 66%
    11:00 +19°C° 0 mm 5 mps 740 mmHg 63%
    12:00 +19°C° 0 mm 5 mps 741 mmHg 62%
    13:00 +20°C° 0 mm 5 mps 741 mmHg 61%
    14:00 +21°C° 0 mm 5 mps 741 mmHg 61%
    15:00 +21°C° 0 mm 4 mps 741 mmHg 63%
    16:00 +20°C° 0 mm 4 mps 741 mmHg 66%
    17:00 +20°C° 0 mm 3 mps 741 mmHg 69%
    18:00 +19°C° 0 mm 3 mps 741 mmHg 75%
    19:00 +17°C° 0 mm 3 mps 741 mmHg 81%
    20:00 +16°C° 0 mm 3 mps 742 mmHg 87%
    21:00 +14°C° 0 mm 3 mps 742 mmHg 89%
    22:00 +14°C° 0 mm 3 mps 742 mmHg 90%
    23:00 +14°C° 0 mm 3 mps 742 mmHg 91%

    Tomorrow, 28 May, Tuesday

    Time Temperature Precipitation Wind Pressure Humidity
    00:00 +13°C° 0 mm 3 mps 742 mmHg 92%
    01:00 +13°C° 0 mm 4 mps 742 mmHg 93%
    02:00 +13°C° 0 mm 4 mps 742 mmHg 94%
    03:00 +13°C° 0 mm 4 mps 743 mmHg 94%
    04:00 +14°C° 0 mm 4 mps 743 mmHg 93%
    05:00 +14°C° 0 mm 4 mps 743 mmHg 92%
    06:00 +17°C° 0 mm 4 mps 743 mmHg 88%
    07:00 +19°C° 0 mm 4 mps 743 mmHg 84%
    08:00 +21°C° 0 mm 4 mps 743 mmHg 81%
    09:00 +22°C° 0.3 mm 5 mps 743 mmHg 77%
    10:00 +23°C° 0.3 mm 5 mps 744 mmHg 73%
    11:00 +25°C° 0.3 mm 5 mps 744 mmHg 68%
    12:00 +26°C° 0.1 mm 5 mps 744 mmHg 67%
    13:00 +26°C° 0.1 mm 5 mps 744 mmHg 66%
    14:00 +27°C° 0.1 mm 5 mps 744 mmHg 64%
    15:00 +26°C° 0.2 mm 5 mps 743 mmHg 68%
    16:00 +26°C° 0.2 mm 4 mps 743 mmHg 71%
    17:00 +25°C° 0.2 mm 4 mps 743 mmHg 74%
    18:00 +23°C° 0 mm 4 mps 743 mmHg 79%
    19:00 +21°C° 0 mm 3 mps 743 mmHg 83%
    20:00 +20°C° 0 mm 3 mps 744 mmHg 88%
    21:00 +19°C° 0 mm 3 mps 744 mmHg 89%
    22:00 +19°C° 0 mm 3 mps 744 mmHg 90%
    23:00 +18°C° 0 mm 3 mps 744 mmHg 91%

    Day after tomorrow, 29 May, Wednesday

    Time Temperature Precipitation Wind Pressure Humidity
    00:00 +18°C° 0 mm 3 mps 744 mmHg 92%
    01:00 +18°C° 0 mm 4 mps 744 mmHg 92%
    02:00 +17°C° 0 mm 4 mps 744 mmHg 92%
    03:00 +18°C° 0 mm 4 mps 744 mmHg 91%
    04:00 +18°C° 0 mm 4 mps 745 mmHg 90%
    05:00 +18°C° 0 mm 4 mps 745 mmHg 88%
    06:00 +20°C° 0 mm 4 mps 745 mmHg 83%
    07:00 +21°C° 0 mm 5 mps 745 mmHg 77%
    08:00 +23°C° 0 mm 5 mps 745 mmHg 72%
    09:00 +24°C° 0 mm 6 mps 745 mmHg 68%
    10:00 +26°C° 0 mm 6 mps 745 mmHg 64%
    11:00 +26°C° 0 mm 6 mps 745 mmHg 60%
    12:00 +27°C° 0 mm 6 mps 745 mmHg 60%
    13:00 +27°C° 0 mm 6 mps 745 mmHg 60%
    14:00 +27°C° 0 mm 6 mps 745 mmHg 61%
    15:00 +27°C° 0 mm 5 mps 745 mmHg 64%
    16:00 +26°C° 0 mm 5 mps 745 mmHg 68%
    17:00 +26°C° 0 mm 4 mps 744 mmHg 72%
    18:00 +23°C° 0 mm 4 mps 744 mmHg 76%
    19:00 +22°C° 0 mm 4 mps 744 mmHg 81%
    20:00 +20°C° 0 mm 3 mps 744 mmHg 86%
    21:00 +19°C° 0 mm 3 mps 745 mmHg 87%
    22:00 +19°C° 0 mm 3 mps 745 mmHg 89%
    23:00 +18°C° 0 mm 3 mps 745 mmHg 90%

    30 May, Thursday

    Time Temperature Precipitation Wind Pressure Humidity
    00:00 +18°C° 0 mm 3 mps 745 mmHg 91%
    01:00 +18°C° 0 mm 3 mps 745 mmHg 91%
    02:00 +17°C° 0 mm 3 mps 745 mmHg 92%
    03:00 +18°C° 0 mm 3 mps 745 mmHg 91%
    04:00 +18°C° 0 mm 4 mps 745 mmHg 90%
    05:00 +18°C° 0 mm 4 mps 745 mmHg 89%
    06:00 +20°C° 0 mm 4 mps 745 mmHg 84%
    07:00 +22°C° 0 mm 4 mps 746 mmHg 79%
    08:00 +23°C° 0 mm 4 mps 746 mmHg 74%
    09:00 +25°C° 0 mm 5 mps 745 mmHg 69%
    10:00 +26°C° 0 mm 6 mps 745 mmHg 65%
    11:00 +27°C° 0 mm 6 mps 745 mmHg 61%
    12:00 +27°C° 0 mm 6 mps 745 mmHg 61%
    13:00 +27°C° 0 mm 6 mps 745 mmHg 61%
    14:00 +28°C° 0 mm 6 mps 745 mmHg 61%
    15:00 +27°C° 0 mm 5 mps 745 mmHg 64%
    16:00 +27°C° 0 mm 5 mps 745 mmHg 68%
    17:00 +27°C° 0 mm 4 mps 744 mmHg 72%
    18:00 +25°C° 0 mm 4 mps 745 mmHg 76%
    19:00 +24°C° 0 mm 3 mps 745 mmHg 81%
    20:00 +21°C° 0 mm 3 mps 745 mmHg 85%
    21:00 +21°C° 0 mm 3 mps 745 mmHg 86%
    22:00 +20°C° 0 mm 3 mps 745 mmHg 87%
    23:00 +20°C° 0 mm 2 mps 745 mmHg 88%

    31 May, Friday

    Time Temperature Precipitation Wind Pressure Humidity
    00:00 +20°C° 0 mm 3 mps 745 mmHg 87%
    01:00 +20°C° 0 mm 3 mps 745 mmHg 86%
    02:00 +20°C° 0 mm 3 mps 745 mmHg 85%
    03:00 +20°C° 0 mm 3 mps 745 mmHg 86%
    04:00 +19°C° 0 mm 3 mps 745 mmHg 86%
    05:00 +19°C° 0 mm 3 mps 745 mmHg 87%
    06:00 +21°C° 0 mm 3 mps 745 mmHg 83%
    07:00 +22°C° 0 mm 3 mps 745 mmHg 78%
    08:00 +25°C° 0 mm 4 mps 745 mmHg 74%
    09:00 +26°C° 0.1 mm 4 mps 745 mmHg 70%
    10:00 +27°C° 0.1 mm 4 mps 745 mmHg 65%
    11:00 +28°C° 0.1 mm 4 mps 745 mmHg 60%
    12:00 +29°C° 0 mm 4 mps 745 mmHg 60%
    13:00 +29°C° 0 mm 4 mps 745 mmHg 59%
    14:00 +29°C° 0 mm 4 mps 745 mmHg 58%
    15:00 +29°C° 0.1 mm 4 mps 744 mmHg 62%
    16:00 +29°C° 0.1 mm 3 mps 744 mmHg 66%
    17:00 +28°C° 0.1 mm 2 mps 744 mmHg 69%
    18:00 +27°C° 0 mm 2 mps 744 mmHg 73%
    19:00 +25°C° 0 mm 2 mps 744 mmHg 77%
    20:00 +23°C° 0 mm 2 mps 744 mmHg 81%
    21:00 +21°C° 0 mm 2 mps 744 mmHg 82%
    22:00 +21°C° 0 mm 2 mps 744 mmHg 83%
    23:00 +20°C° 0 mm 2 mps 744 mmHg 85%

    1 June, Saturday

    Time Temperature Precipitation Wind Pressure Humidity
    00:00 +20°C° 0 mm 2 mps 744 mmHg 85%
    01:00 +20°C° 0 mm 2 mps 744 mmHg 86%
    02:00 +19°C° 0 mm 2 mps 744 mmHg 86%
    03:00 +20°C° 0 mm 2 mps 744 mmHg 86%
    04:00 +20°C° 0 mm 2 mps 744 mmHg 87%
    05:00 +21°C° 0 mm 2 mps 744 mmHg 87%
    06:00 +22°C° 0.5 mm 3 mps 744 mmHg 83%
    07:00 +25°C° 0.5 mm 3 mps 744 mmHg 79%
    08:00 +26°C° 0.5 mm 4 mps 744 mmHg 75%
    09:00 +27°C° 0.2 mm 4 mps 744 mmHg 70%
    10:00 +28°C° 0.2 mm 5 mps 744 mmHg 64%
    11:00 +29°C° 0.2 mm 5 mps 744 mmHg 59%
    12:00 +29°C° 0 mm 5 mps 743 mmHg 58%
    13:00 +30°C° 0 mm 5 mps 743 mmHg 56%
    14:00 +30°C° 0 mm 5 mps 743 mmHg 55%
    15:00 +30°C° 0 mm 4 mps 743 mmHg 59%
    16:00 +30°C° 0 mm 3 mps 743 mmHg 63%
    17:00 +30°C° 0 mm 2 mps 743 mmHg 67%
    18:00 +28°C° 0 mm 2 mps 743 mmHg 70%
    19:00 +27°C° 0 mm 2 mps 743 mmHg 73%
    20:00 +25°C° 0 mm 2 mps 743 mmHg 77%
    21:00 +24°C° 0 mm 2 mps 743 mmHg 77%
    22:00 +23°C° 0 mm 2 mps 743 mmHg 78%
    23:00 +23°C° 0 mm 2 mps 743 mmHg 79%
    Show more